Find Starlink 30758

NORAD ID: 58133 Int'l Des: 2023-162 Owner: SPXS Country: US Constellation: starlink operational
LEOCIRCULAR

現在のビュー

3D地球を読み込み中...

About Starlink 30758

Starlink 30758 (NORAD 58133) is a starlink constellation satellite (v2 mini) launched Oct 22, 2023 by SPXS of US. It operates in LEO, CIRCULAR orbit with a mass of 730.00 kg.

次回通過

Passes for default location (London). Set your location on the main map for personalized predictions.

高度履歴

Loading altitude history...

軌道要素

1 58133U 23162R 26264.24904033 .00000493 00000-0 27435-4 0 9990
2 58133 43.0011 104.8139 0001315 268.0828 91.9873 15.27582438162259
Epoch: Sep 21, 2026 • Age: 5 hours

現在のステータス

高度 482.6 km
遠地点 / 近地点 N/A
速度 7.63 km/s
衛星直下点 16.81°N, 94°E
打ち上げ日 Oct 22, 2023
運用期間 2.9 years
タイプ internet

技術仕様

分類 Payload
質量 730.00 kg
乾燥質量 700.00 kg
長さ 0.30 m
スパン 29.00 m
形状 ? Box + pan
製造者 SPXS
バスタイプ Starlink V2M
フェーズステータス In Orbit
所有者/国 SPXS/US

Most Searched